Location: Unspecified
(0.0000°N, 0.0000°E)
Time: 22:21:00
(UTC+02:00)

ADEOS II - Visible Passes

Search period start: 24 June 2016 00:00
Search period end: 04 July 2016 00:00
Orbit: 800 x 801 km, 98.3° (Epoch: 24 June)

Date Brightness Start Highest point End Pass type
(mag) Time Alt. Az. Time Alt. Az. Time Alt. Az.
24 Jun 4.5 05:07:49 10° ENE 05:10:59 16° ESE 05:11:14 16° ESE visible
24 Jun 2.9 06:45:50 10° NNW 06:50:25 31° WNW 06:52:11 25° WSW visible
25 Jun 2.0 06:18:58 10° N 06:24:09 66° WNW 06:25:30 48° SW visible
26 Jun 2.4 05:52:44 10° NNE 05:57:54 60° ESE 05:58:48 52° SE visible
27 Jun 3.7 05:27:10 10° NE 05:31:39 29° ESE 05:32:07 28° ESE visible
27 Jun 3.6 07:07:41 10° NW 07:11:05 18° WNW 07:13:04 15° WSW visible
28 Jun 4.6 05:02:48 10° ENE 05:05:24 14° ESE 05:05:25 14° ESE visible
28 Jun 2.7 06:40:05 10° NNW 06:44:50 36° WNW 06:46:22 30° WSW visible
29 Jun 1.9 06:13:21 10° N 06:18:35 76° WNW 06:19:40 56° SW visible
30 Jun 2.7 05:47:14 10° NNE 05:52:19 52° ESE 05:52:59 49° SE visible
01 Jul 3.9 05:21:49 10° NE 05:26:04 25° ESE 05:26:16 25° ESE visible
01 Jul 3.4 07:01:44 10° NNW 07:05:31 20° WNW 07:07:14 17° WSW visible
02 Jul 4.8 04:57:57 10° E 04:59:35 12° E 04:59:35 12° E visible
02 Jul 2.5 06:34:21 10° N 06:39:15 41° WNW 06:40:32 35° WSW visible
03 Jul 1.9 06:07:45 10° N 06:13:00 87° WNW 06:13:50 64° SSW visible
